Notices

What's New in latest Release from April 7th, 2021:

- Updated Glossary, including Speed of Maximum Gust, and Total Hourly Precipitation

- Updated national and regional climate services offices contacts and prices information

- Addition of station inventory lists for 1981-2010, 1971-2000, and 1961-1990 Normals.

If you haven't already, please take our survey and provide feedback about our website: https://eccc.sondage-survey.ca/f/LanguageSelection.aspx?s=442ca660-fcf1-47c0-95a9-59707d6fd709

Hourly Data Report for December 04, 2020

MUSKOKA
ONTARIO
Current Station Operator: NAVCAN

44°58'29.000" N
79°18'12.000" W
281.90 m
6115529
71532
YQA

Download Data

Hourly Data (December 2020)
Hourly Data Report for December 4, 2020
TIME
LST
Temp Definition
°C
Dew Point Definition
°C
Rel Hum Definition
%
Precip. Amount Definition
mm

Wind Dir Definition
10's deg

Wind Spd Definition
km/h
Visibility Definition
km
Stn Press Definition
kPa
Hmdx Definition


Wind Chill Definition


Weather Definition


00:00 0.4 -1.5 87 LegendMM 19 13 16.1 97.58     LegendNANA
01:00 0.5 -1.4 87 LegendMM 19 15 16.1 97.53     LegendNANA
02:00 0.4 -1.1 90 LegendMM 19 15 11.3 97.52     Rain
03:00 0.7 -0.8 90 LegendMM 19 18 8.1 97.49     Rain,Snow
04:00 0.8 -0.8 89 LegendMM 20 13 12.9 97.45     LegendNANA
05:00 0.8 -1.0 88 LegendMM 19 13 12.9 97.43     LegendNANA
06:00 0.8 -1.1 87 LegendMM 19 13 14.5 97.43     LegendNANA
07:00 0.6 -1.2 88 LegendMM 18 11 12.9 97.42     LegendNANA
08:00 0.6 -1.2 88 LegendMM 19 15 11.3 97.41     LegendNANA
09:00 0.6 -0.5 92 LegendMM 19 15 4.8 97.42     Snow
10:00 0.6 -0.3 94 LegendMM 19 15 2.8 97.42     Snow
11:00 0.8 -0.1 94 LegendMM 20 17 4.0 97.42     Snow
12:00 0.6 -0.3 94 LegendMM 19 15 4.8 97.40     Rain,Fog
13:00 0.6 0.0 96 LegendMM 19 17 2.8 97.39     Rain,Fog
14:00 0.8 0.1 95 LegendMM 20 13 4.0 97.38     Rain,Fog
15:00 1.0 0.4 96 LegendMM 20 15 4.0 97.39     Rain,Fog
16:00 0.6 0.2 97 LegendMM 21 11 2.4 97.45     Snow
17:00 0.3 0.0 98 LegendMM 25 4 3.2 97.50     Rain,Snow
18:00 0.3 0.0 98 LegendMM 23 8 1.0 97.56     Fog
19:00 -0.3 -0.4 99 LegendMM 25 5 0.2 97.62   -2 Freezing Fog
20:00 -0.1 -0.2 99 LegendMM LegendMM 4 0.4 97.67   -1 Freezing Fog
21:00 -0.2 -0.3 99 LegendMM   0 0.4 97.70     Freezing Fog
22:00 -0.3 -0.4 99 LegendMM   0 0.2 97.74     Freezing Fog
23:00 -0.1 -0.2 99 LegendMM   0 0.6 97.81     Freezing Fog

Notes on Data Quality.

Legend

  • E = Estimated
  • M = Missing
  • NA = Not Available*
  • [empty] = Indicates an unobserved value
Date modified: